RH
26 25 24 23 23 22 22 21 20 20 19 18 18 16 15 15 13 12 12 12 13 15 17 19 19 16 14 11 11 15 18 14 8 7 9 18 34 36 25 31 50 71 92 101 99 100 100 101 99 95 97 101 100 92 85 84 82 76 69 62 51 34 18 12 12 11 10 8 7 8 9 9 8 6
27 26 25 24 23 23 22 21 20 20 19 18 17 16 15 14 13 12 11 11 12 13 13 15 18 20 21 19 15 14 17 19 16 10 11 23 40 41 30 31 47 69 90 99 98 100 101 101 99 94 96 101 100 97 91 81 78 78 75 69 62 46 25 14 13 12 11 10 8 8 8 10 10 9
29 28 26 25 24 23 22 21 21 19 18 17 16 15 15 14 13 12 11 10 12 13 13 12 14 17 20 24 25 20 16 22 33 32 27 38 49 42 32 38 55 74 88 94 98 101 100 101 101 96 95 100 101 101 96 82 76 81 80 74 70 60 37 18 13 13 12 11 10 9 8 9 10 10
28 27 26 25 23 23 22 21 21 20 18 18 16 15 15 15 14 13 11 10 10 13 13 11 13 14 15 18 21 21 15 16 37 55 57 57 56 43 36 45 64 83 93 94 97 101 100 101 102 97 95 97 100 100 94 82 78 84 84 77 74 68 47 25 16 15 13 12 11 11 10 9 9 10
28 28 27 26 25 24 24 23 22 22 21 20 19 18 17 17 17 15 14 12 10 13 13 11 13 13 14 14 13 16 16 10 27 61 78 72 59 47 43 49 66 86 95 96 97 98 100 101 101 98 94 95 99 99 94 88 88 90 88 84 80 72 51 29 19 18 15 13 13 12 11 11 10 9
30 29 28 26 25 23 22 21 20 19 19 18 18 18 17 17 18 17 16 14 12 12 14 13 14 14 14 14 12 14 15 12 21 51 79 81 65 54 53 55 68 85 90 93 98 99 100 101 100 98 94 94 99 101 98 95 94 93 91 87 84 75 54 32 23 22 18 14 14 13 13 12 11 10
28 25 23 21 19 17 16 15 14 13 13 13 12 12 13 13 14 14 14 14 13 13 14 14 15 16 16 15 14 13 15 16 18 34 70 91 75 60 61 62 74 90 91 91 98 100 99 101 101 99 94 91 94 98 100 98 96 96 94 89 85 76 57 37 29 27 23 19 18 17 16 15 14 12
20 17 15 13 12 11 10 9 8 8 8 8 8 8 8 9 9 10 10 10 11 11 12 14 15 15 16 15 16 15 14 17 16 21 56 93 92 78 75 73 78 93 97 96 100 101 99 100 101 100 96 91 90 93 98 101 99 97 96 93 88 77 59 43 37 35 31 28 28 27 25 22 19 17
12 10 9 8 7 6 6 5 5 5 5 5 5 5 6 6 6 7 7 7 8 8 8 10 13 15 15 14 15 17 15 14 15 15 27 64 94 96 87 82 83 92 97 95 96 99 100 100 100 101 99 94 92 93 95 100 100 97 95 95 91 79 62 49 44 42 40 40 42 42 39 34 30 27
7 6 5 4 4 4 4 3 3 3 3 3 4 3 4 4 4 5 5 5 6 6 6 6 8 12 14 14 14 17 18 13 15 17 13 34 81 101 93 90 92 94 95 87 84 92 99 99 99 100 99 97 95 96 96 97 99 100 99 97 91 79 65 55 51 50 50 53 55 55 53 49 45 41
4 4 3 3 3 3 3 3 2 3 3 2 2 2 3 3 3 3 3 4 4 4 6 5 5 7 10 14 14 14 18 14 13 19 15 25 72 102 99 97 98 98 97 84 72 80 92 98 100 98 100 100 98 99 99 98 98 99 100 99 92 80 67 60 58 58 60 63 63 61 61 60 58 54
3 3 3 3 3 3 3 2 2 2 2 2 2 2 2 2 2 3 2 3 3 3 4 4 5 6 5 10 15 14 16 16 14 19 14 19 63 101 102 99 101 100 99 89 75 74 84 96 102 100 100 102 99 97 98 99 98 97 99 100 93 81 71 65 64 64 68 69 66 64 63 64 64 61
3 3 3 3 3 3 3 3 3 3 2 3 2 2 3 2 2 3 2 2 3 2 3 3 3 5 5 6 11 14 16 15 14 20 16 14 55 99 102 98 102 101 99 99 92 86 88 95 101 101 99 100 100 96 94 97 99 98 100 101 94 83 75 70 68 70 72 70 66 64 64 65 66 64
4 4 4 4 4 4 4 4 4 4 3 3 3 3 3 3 2 2 2 2 2 1 2 3 2 4 5 4 7 11 17 18 15 19 18 14 45 91 103 98 100 102 101 101 98 95 97 98 99 100 99 98 101 99 93 92 97 99 102 100 93 85 78 73 72 73 72 68 63 62 64 65 65 63
5 5 5 5 5 5 5 4 4 5 4 4 4 3 3 3 3 3 2 2 2 2 2 2 2 2 3 4 5 6 13 20 18 18 20 16 29 68 98 102 99 100 102 99 95 97 98 97 98 100 100 99 99 99 97 97 99 101 102 99 93 87 81 74 73 73 70 65 63 63 64 64 64 63
5 6 5 5 5 5 5 5 4 4 4 4 4 4 4 4 3 3 3 2 2 2 2 2 2 2 2 3 4 5 9 17 20 18 19 19 21 41 78 100 99 98 103 101 99 99 94 93 99 99 99 100 99 99 102 101 101 101 100 98 95 90 83 76 73 72 68 66 67 67 66 64 62 62
5 5 6 5 5 5 5 5 5 4 5 4 4 4 3 4 4 3 3 3 3 2 2 2 2 2 2 2 2 4 4 10 19 21 19 21 22 26 54 90 101 98 100 101 100 100 92 89 97 100 99 99 97 98 102 100 100 101 99 99 98 91 85 79 74 71 69 69 72 71 68 66 62 61
6 6 6 5 6 6 5 5 5 5 4 4 4 4 4 3 3 3 3 3 3 3 2 2 2 1 2 2 2 4 4 5 14 22 21 22 25 22 35 76 101 99 98 102 101 99 94 91 96 99 100 98 94 96 101 100 100 102 100 99 97 90 85 82 75 71 71 73 77 76 73 69 64 62
6 6 6 6 6 6 5 5 5 4 4 4 3 3 3 3 3 3 3 3 3 3 2 2 2 2 2 2 1 1 3 4 9 19 22 20 25 23 26 60 97 101 97 101 101 97 94 93 96 100 100 99 98 99 101 101 101 101 99 97 95 89 85 81 75 72 73 77 82 82 78 73 67 64
7 7 7 7 6 6 6 5 4 4 4 3 3 3 3 3 3 2 2 2 2 2 3 2 2 2 2 2 3 2 2 3 4 13 21 20 23 25 22 46 89 104 98 99 101 100 96 90 92 100 100 99 101 101 100 101 100 99 97 94 92 91 88 84 78 74 74 79 85 87 83 77 71 65
8 8 7 7 6 6 5 4 4 4 3 3 3 3 3 2 3 3 3 3 3 2 3 2 2 3 2 1 2 1 1 4 3 7 17 22 25 26 21 37 80 103 99 98 101 101 98 88 87 98 101 99 100 101 100 101 99 98 98 96 95 96 94 90 84 80 79 82 87 91 89 83 76 68
8 8 7 7 7 5 5 4 4 4 4 4 3 3 4 4 3 3 3 3 3 2 2 3 1 2 3 2 3 3 1 2 3 4 14 23 25 25 20 31 72 101 100 98 102 101 98 94 92 98 101 98 100 100 99 100 99 98 100 99 99 100 98 95 91 87 86 88 91 95 94 89 83 75
9 8 7 7 6 5 5 4 4 4 4 4 4 3 4 4 3 5 4 3 4 3 2 3 2 2 3 1 1 3 2 2 2 2 11 21 24 26 22 25 60 98 102 98 101 100 99 99 97 98 100 99 100 100 99 100 99 98 99 100 100 101 100 98 95 93 93 95 96 98 100 97 92 85
9 8 8 7 6 5 5 5 4 5 5 5 6 5 5 6 5 5 5 3 4 4 3 3 2 1 3 3 2 2 1 3 3 1 8 20 23 26 24 21 50 93 104 99 101 100 99 101 100 99 100 100 100 101 100 100 100 99 99 99 99 101 100 98 96 94 94 96 97 99 102 102 98 94
9 9 8 7 6 4 5 6 4 5 6 7 8 6 5 7 5 5 7 6 5 4 3 4 5 3 1 1 2 4 2 1 3 1 6 18 25 28 26 21 44 87 104 98 99 101 99 101 100 99 100 100 99 100 100 101 100 98 97 96 97 101 101 99 98 96 94 94 95 96 99 100 97 93
10 9 8 7 6 4 6 5 4 7 7 9 16 18 14 14 13 9 6 4 7 11 8 2 1 3 5 3 1 2 3 2 3 2 5 15 24 29 30 23 35 75 102 100 98 101 100 100 100 98 100 101 97 96 98 101 101 99 98 97 98 100 100 100 101 100 97 97 98 98 99 100 97 91
10 10 8 8 5 5 7 5 5 9 6 14 40 45 31 33 39 23 5 13 45 66 55 28 11 3 1 3 3 2 2 2 2 1 3 15 24 29 32 27 28 59 94 101 99 100 100 100 101 99 99 100 98 97 99 100 100 100 99 97 99 101 102 101 100 97 98 100 100 100 100 100 98 95
11 10 9 8 5 6 7 5 7 10 6 25 66 70 50 61 70 38 9 29 75 104 95 71 55 39 16 2 1 3 3 2 4 3 1 11 25 30 33 30 27 49 87 101 99 100 100 99 101 100 98 99 100 100 101 101 100 100 98 97 99 100 98 97 96 95 98 101 100 100 101 99 98 99
12 11 10 9 6 7 8 5 9 11 7 33 81 89 73 86 87 50 29 41 58 71 73 64 60 58 43 19 3 1 4 1 1 3 3 9 21 29 34 33 27 42 80 101 100 99 100 99 100 100 98 99 101 99 98 99 100 99 98 98 100 99 96 95 97 99 100 101 100 100 100 99 99 101
13 12 11 10 7 7 8 6 9 12 9 35 85 99 84 87 88 72 74 82 68 56 59 61 59 60 60 50 25 5 3 4 3 2 1 7 19 27 34 37 30 40 76 101 100 99 100 99 99 100 100 99 99 96 95 96 97 97 98 98 99 100 99 98 100 101 100 100 101 100 99 100 101 100
13 12 12 11 8 8 9 6 10 15 11 29 79 103 87 81 88 84 88 99 91 68 58 65 73 72 72 73 58 28 8 4 6 7 3 4 15 27 38 41 32 40 75 100 101 99 100 99 99 100 100 99 95 93 96 98 98 98 99 100 99 100 100 100 101 101 100 101 101 100 100 99 95 94
14 14 13 13 10 8 9 7 10 17 14 21 62 98 97 91 99 95 90 99 105 93 72 61 69 84 89 79 63 48 31 14 7 9 7 4 12 27 47 57 53 57 81 99 101 100 100 99 99 100 100 101 98 95 97 100 99 99 100 100 101 101 100 101 101 100 100 101 100 99 101 96 87 87
16 16 15 14 12 8 9 8 8 15 17 17 42 81 98 99 101 99 94 96 100 102 90 64 53 79 102 86 61 62 65 52 38 27 12 5 13 28 49 71 80 83 93 100 100 100 100 99 100 100 99 100 101 100 100 100 100 100 100 100 100 100 100 100 100 99 100 100 99 99 101 98 91 91
18 18 16 16 14 10 9 9 7 11 16 15 28 64 93 101 99 97 98 98 94 93 93 80 69 82 94 79 63 70 77 71 64 50 23 8 15 30 52 80 95 96 98 101 100 100 100 99 100 101 100 99 100 100 100 101 100 100 100 100 100 100 100 99 100 100 100 100 100 100 100 101 98 95
20 19 18 17 16 12 10 10 7 9 12 11 18 47 78 94 98 98 99 101 94 78 66 64 76 91 86 58 36 45 64 69 65 51 27 11 17 35 58 85 101 101 98 100 100 99 100 100 99 99 100 100 100 100 100 100 99 99 100 101 100 99 99 100 100 100 100 100 101 101 100 101 100 96
21 21 19 18 18 15 12 11 8 8 11 10 10 26 54 78 92 98 99 101 100 91 73 54 51 74 96 86 56 48 62 67 57 44 27 13 18 37 55 74 91 99 99 100 100 99 99 99 99 99 100 99 100 100 99 100 100 100 100 100 99 99 100 100 100 100 100 100 100 100 100 101 100 98
22 22 21 20 20 18 15 13 10 8 9 11 10 12 26 48 69 87 99 101 96 98 101 89 68 64 79 82 65 54 56 53 48 52 48 31 25 35 45 57 76 92 99 100 100 100 100 100 99 99 100 99 100 101 100 100 100 100 100 100 100 100 100 100 100 100 99 99 100 100 100 100 100 100
22 23 23 21 21 20 18 15 13 10 8 9 12 12 13 21 35 57 85 101 97 92 99 105 98 88 79 69 61 64 70 67 61 60 57 51 50 53 54 60 75 90 98 101 100 99 100 100 99 99 100 100 100 100 100 100 100 100 100 100 99 100 100 100 99 99 99 100 100 100 100 100 100 100
22 22 23 23 22 22 21 18 15 14 11 8 9 11 12 14 17 30 58 87 101 101 100 100 101 103 102 95 87 85 86 87 83 69 54 52 62 70 73 78 86 93 97 100 100 100 100 100 99 100 100 100 100 100 100 100 100 100 100 100 100 100 100 100 100 101 100 101 101 101 100 100 100 99
24 23 23 24 24 23 23 22 19 16 14 12 9 8 9 11 12 16 33 60 85 98 102 99 94 89 83 79 79 78 75 73 74 70 61 54 54 58 66 76 88 96 98 97 97 99 100 100 100 100 100 100 100 100 100 100 100 100 100 100 100 100 100 100 100 100 100 100 100 100 100 100 99 99
26 25 23 24 25 25 25 24 22 20 17 15 12 10 9 9 10 10 13 28 52 79 97 100 92 83 79 81 86 90 89 80 69 65 64 61 58 57 58 63 76 92 100 100 99 99 100 99 100 100 100 100 100 100 100 100 100 100 100 100 100 99 99 99 99 99 99 100 100 100 99 99 99 99
26 27 26 25 24 26 27 26 24 23 21 18 16 13 11 9 9 11 11 12 23 48 80 100 100 94 94 100 101 99 99 96 86 76 70 64 61 61 61 61 67 79 91 98 100 99 99 100 100 100 100 100 100 100 100 99 99 100 100 100 100 100 100 100 100 100 100 99 100 100 100 99 100 100
27 27 28 27 25 26 27 27 27 26 24 22 19 17 15 12 9 8 10 11 12 22 48 79 98 101 100 100 101 101 104 103 95 85 77 69 63 61 62 64 65 69 78 89 95 96 97 99 100 100 101 100 100 100 100 99 99 100 100 100 100 100 100 100 100 100 100 100 100 100 100 100 100 100
30 29 28 28 28 27 26 27 28 28 26 25 23 19 17 16 14 10 9 9 8 9 17 36 62 83 96 101 101 101 103 103 97 86 77 70 65 60 60 63 65 65 68 77 85 89 91 93 95 97 99 100 100 100 100 100 100 99 99 99 100 100 100 100 100 100 100 100 100 100 100 100 100 100
34 32 31 30 29 29 29 28 28 29 28 27 27 24 21 18 16 15 13 11 9 9 8 10 19 37 60 81 94 99 102 102 100 92 81 72 66 60 56 57 60 61 62 67 74 81 84 86 89 93 95 98 99 99 99 100 100 100 100 100 100 100 100 100 100 100 100 100 100 100 100 100 100 100
Wind_Speed
40 40 40 41 41 42 42 43 44 44 44 45 45 45 47 48 47 45 43 41 39 39 41 40 39 39 40 40 41 41 41 39 39 39 39 39 38 38 39 41 43 43 40 39 40 43 45 44 40 38 37 35 36 36 36 35 33 32 32 32 32 31 30 30 29 29 30 30 30 29 29 28 28 28
41 41 41 42 42 42 43 43 44 44 44 44 45 45 46 48 49 47 45 41 39 39 40 40 40 39 40 40 41 42 41 39 39 40 39 39 40 39 39 41 43 44 42 40 42 45 46 43 40 38 37 35 36 37 37 36 35 34 33 33 33 32 32 31 30 30 30 30 30 30 30 29 28 28
43 43 43 43 43 44 44 44 45 45 45 45 46 46 47 48 48 48 47 43 39 39 40 40 40 41 40 40 41 41 40 38 38 40 39 39 40 40 40 41 43 43 41 41 43 45 45 42 39 38 37 36 37 38 39 37 36 35 35 34 33 33 33 32 32 31 31 30 30 30 30 30 29 28
45 45 45 45 45 45 45 45 45 46 46 46 47 47 47 48 48 48 47 45 40 39 40 41 40 41 42 41 41 41 40 38 38 38 39 39 39 40 39 41 42 41 39 38 40 44 44 41 39 38 37 37 38 39 40 39 37 36 35 35 34 34 34 34 33 33 32 31 30 30 30 30 30 29
46 46 46 46 46 46 46 46 46 46 47 47 47 48 48 48 48 47 47 46 43 39 40 42 41 41 42 42 42 41 39 38 38 38 37 37 38 39 39 41 42 41 38 36 37 43 45 42 40 38 38 39 38 39 40 40 38 37 37 36 35 35 35 35 35 34 33 32 31 31 30 30 30 30
47 47 47 47 47 48 48 48 48 48 48 48 49 49 49 49 49 49 48 47 45 41 40 42 43 42 43 43 42 42 40 38 39 39 38 38 38 38 39 41 42 42 40 37 37 41 45 43 41 40 40 40 39 39 40 40 39 38 38 37 36 36 36 36 36 35 34 33 32 32 31 31 30 30
49 49 49 49 49 50 50 50 50 50 50 50 50 50 50 51 50 51 51 49 47 44 41 42 43 43 44 44 43 42 40 39 40 40 39 39 39 39 39 42 43 42 41 39 37 39 42 43 42 41 41 41 40 40 40 41 41 40 39 38 36 37 38 37 36 36 34 34 33 33 32 32 31 31
50 50 51 51 51 51 51 51 51 52 52 52 52 52 52 52 51 52 53 52 51 48 44 43 44 44 45 45 45 44 42 41 41 42 41 40 40 40 40 42 43 43 42 40 38 37 39 43 44 43 42 42 42 42 42 43 43 42 41 39 38 38 39 38 37 36 35 35 34 34 33 33 32 31
51 51 52 52 52 52 52 52 52 52 52 53 54 54 54 53 53 53 53 54 54 52 48 45 45 45 45 46 46 46 44 43 43 45 44 43 42 42 42 43 43 44 43 42 40 38 38 41 44 45 44 43 43 44 44 45 45 44 42 41 41 40 40 39 37 36 36 35 35 34 34 33 33 32
52 53 53 53 53 53 53 53 53 53 53 53 54 54 55 55 55 55 54 55 55 54 52 49 48 47 46 46 46 47 47 45 45 47 45 43 42 42 43 44 43 44 44 44 42 40 40 42 45 47 47 46 47 48 47 47 46 46 45 44 42 41 41 40 38 37 36 36 35 34 34 34 33 33
52 52 53 53 53 54 54 54 54 54 54 54 54 55 55 55 56 56 56 56 56 56 55 53 51 50 48 47 46 47 49 48 47 48 46 41 40 41 43 43 43 43 44 44 44 41 40 43 46 49 49 48 48 49 50 50 48 47 47 46 43 42 42 40 38 37 37 36 36 35 34 34 34 33
52 52 52 52 53 53 54 55 56 56 56 56 55 55 56 56 56 57 57 58 58 57 57 55 54 52 51 49 47 48 50 49 48 49 46 42 39 39 42 44 42 43 44 44 44 43 41 41 44 47 48 48 50 50 51 54 54 51 50 48 45 43 42 40 38 38 37 37 36 35 35 35 35 34
51 51 52 52 52 53 54 54 56 57 58 58 58 57 57 57 57 57 57 58 59 59 58 57 56 55 53 52 49 49 50 51 50 49 46 43 40 37 39 41 41 42 45 44 43 44 43 43 44 46 46 47 51 53 54 57 58 57 54 49 46 44 42 40 39 38 38 37 37 36 36 36 36 36
50 51 51 51 52 52 53 53 54 55 57 59 59 60 60 59 59 59 58 58 59 60 59 58 57 57 56 54 52 50 51 52 51 49 47 46 44 37 34 37 39 40 43 45 43 41 43 44 45 48 49 49 52 56 60 59 57 55 53 48 45 44 42 40 39 39 38 38 37 37 37 37 37 37
48 49 49 50 50 51 51 52 53 54 55 57 58 60 61 61 62 62 61 60 60 60 60 60 59 58 57 56 55 53 53 53 53 50 48 48 48 44 36 34 39 41 41 43 43 41 41 43 44 48 51 52 54 58 61 58 51 49 49 46 44 43 41 40 40 39 38 38 38 37 37 37 37 37
47 48 48 49 50 50 51 52 53 54 55 57 58 59 60 61 62 63 64 63 63 62 61 60 60 59 59 58 57 55 55 55 54 51 50 50 50 48 41 36 38 42 43 43 44 43 41 42 44 47 51 53 56 59 59 55 49 46 46 45 42 41 41 40 40 39 39 39 38 38 37 37 37 37
47 47 48 49 50 51 52 54 54 55 57 58 59 60 61 62 63 64 65 66 66 65 63 62 60 60 60 60 58 57 57 57 55 52 51 51 50 49 44 38 38 42 45 44 45 44 43 42 44 45 47 50 55 58 56 52 48 46 45 44 42 41 41 41 40 40 40 39 38 38 37 37 37 37
47 48 49 50 51 53 54 56 57 58 59 60 61 62 62 63 63 64 65 66 67 67 66 65 61 60 61 61 59 59 59 59 58 54 52 52 51 48 45 41 38 40 46 45 44 45 44 43 44 44 45 48 51 53 52 49 47 46 45 44 43 43 42 42 42 41 41 39 38 37 36 36 36 36
47 48 49 51 52 54 56 58 60 61 62 63 63 63 64 64 64 65 65 66 67 68 68 67 64 61 60 61 60 60 60 60 59 57 54 52 51 49 46 43 40 39 44 47 45 45 45 44 45 45 44 47 50 50 49 48 47 47 46 45 44 44 44 43 43 42 41 40 38 37 36 36 36 36
47 49 50 52 54 56 58 60 62 63 64 65 65 64 63 63 63 63 64 65 66 67 67 67 67 64 61 61 60 59 61 61 60 59 56 52 51 50 47 45 42 39 42 47 46 45 46 46 45 44 41 44 48 49 48 48 47 46 45 44 44 44 44 44 43 43 42 41 39 38 37 37 37 37
48 49 51 53 55 57 59 62 63 64 64 64 63 60 59 57 57 57 58 59 61 64 66 66 66 65 62 61 60 59 60 62 61 60 58 53 51 51 48 46 44 40 40 45 47 46 47 47 46 44 41 41 45 48 48 46 44 43 44 44 43 43 43 43 43 43 43 42 41 40 40 39 39 39
48 50 52 54 56 59 61 63 63 62 61 60 58 55 52 49 48 48 48 49 52 56 61 63 65 65 63 61 60 59 59 61 62 61 59 55 53 52 49 47 47 43 39 42 47 49 49 48 47 46 43 41 42 46 47 44 42 43 44 44 43 42 42 42 43 43 44 44 44 43 43 42 41 40
48 50 53 55 57 60 62 61 60 58 56 54 52 48 43 40 38 37 38 39 42 46 51 56 60 63 62 61 60 59 58 60 61 61 60 57 54 52 50 48 48 44 39 40 46 50 50 49 47 46 45 43 41 43 44 43 41 43 46 46 45 43 42 42 43 43 44 45 46 46 45 43 43 42
48 51 54 55 58 61 61 59 57 54 49 46 43 41 37 34 31 30 30 30 32 36 41 47 52 57 60 59 58 58 58 59 60 61 60 58 55 53 51 49 47 44 39 40 45 50 50 49 48 47 46 46 44 44 44 43 42 45 49 50 49 47 46 45 45 45 46 47 47 47 46 45 45 44
49 52 54 56 59 61 59 57 55 48 41 37 36 34 33 31 29 27 25 24 25 28 32 37 42 49 54 57 56 56 56 57 59 60 60 59 56 54 52 49 47 45 41 40 45 50 51 50 50 49 48 48 48 47 47 46 45 46 50 51 51 51 50 48 46 47 48 49 48 48 48 47 46 46
49 52 53 56 60 61 58 57 53 44 36 32 30 30 29 29 28 26 22 19 18 19 23 29 33 39 46 50 53 55 55 56 58 59 59 59 57 54 52 49 49 48 44 39 42 49 53 54 54 53 51 50 51 50 49 48 48 49 52 52 50 51 53 51 50 50 50 50 51 51 50 49 48 48
49 52 53 57 60 60 58 56 51 43 35 30 28 28 26 24 24 23 19 13 9 11 15 19 24 29 37 43 48 52 53 54 56 57 58 59 57 54 53 50 50 52 47 40 39 46 52 55 55 55 54 52 51 52 51 50 49 51 54 55 53 53 55 55 53 52 51 52 52 53 53 52 50 48
49 51 53 57 59 59 57 55 49 42 35 29 27 28 24 20 21 20 15 9 8 11 12 11 14 18 26 35 42 48 51 53 55 56 57 59 57 55 53 51 50 52 49 41 38 42 49 53 54 54 53 52 52 53 53 51 51 52 54 55 56 57 59 58 56 54 53 52 51 52 53 54 52 48
48 50 52 56 59 57 56 53 46 40 35 27 27 30 25 19 20 19 13 9 10 12 11 10 10 11 15 24 34 43 48 50 52 54 56 57 57 54 51 50 50 51 48 42 38 39 45 51 52 51 50 50 50 52 53 53 52 53 54 55 55 55 56 57 56 54 52 50 49 50 52 53 53 50
47 50 52 55 58 56 55 53 46 39 34 26 26 31 27 20 19 17 12 11 12 11 10 9 8 7 8 14 24 35 43 46 49 52 54 55 55 53 49 48 49 48 46 43 40 38 42 48 51 50 49 49 50 52 53 53 54 54 55 56 56 56 56 55 53 51 49 48 48 50 51 51 50 47
46 49 51 54 57 56 54 52 46 39 34 26 24 29 28 23 22 20 14 12 14 12 9 7 4 4 5 8 14 24 35 41 44 47 51 53 53 50 46 45 46 47 47 44 39 37 40 45 48 51 51 50 52 53 53 53 55 56 56 56 57 58 59 57 53 50 49 50 50 49 49 49 47 45
46 49 51 53 55 54 53 51 45 39 34 26 21 25 29 27 26 23 18 17 16 11 8 6 2 1 4 9 12 16 25 34 39 43 48 51 51 48 44 42 43 45 47 46 40 36 39 43 45 48 50 50 52 53 52 51 52 54 54 53 55 57 56 54 51 49 50 51 51 50 48 48 48 48
45 47 50 51 53 53 52 50 45 38 34 28 21 22 26 29 27 23 18 18 18 13 8 4 1 2 2 7 12 12 15 23 29 36 43 48 48 46 43 41 41 42 43 44 40 36 39 42 42 43 45 47 47 48 47 47 48 50 50 50 51 52 52 50 50 51 51 51 50 50 49 47 47 48
43 45 48 49 51 53 52 50 47 40 34 29 22 21 22 26 28 25 20 18 16 14 12 7 2 4 2 5 12 14 13 16 21 27 37 43 45 44 43 41 40 37 36 37 37 36 38 42 44 42 43 44 45 45 46 46 48 49 50 50 50 51 50 50 50 52 51 50 49 49 48 47 47 47
42 43 46 47 50 52 52 50 48 44 37 31 24 20 20 22 26 27 24 18 15 13 12 10 6 4 1 4 11 15 16 18 20 24 32 39 41 42 43 43 39 33 29 30 34 35 36 39 43 43 43 43 43 44 45 47 49 51 51 51 52 53 51 49 48 49 50 49 49 49 49 49 49 48
41 42 44 46 48 50 51 51 49 46 41 35 28 21 18 18 21 26 27 23 18 14 11 9 5 3 2 2 8 13 14 16 20 22 28 35 39 40 43 44 41 34 28 27 31 34 34 35 38 41 43 43 43 43 44 44 45 47 47 49 51 53 52 49 48 48 48 48 47 48 49 49 49 50
41 41 42 44 46 48 50 51 50 48 44 40 34 26 20 17 17 21 26 26 21 16 14 12 6 3 2 1 5 12 13 15 19 22 24 30 35 38 40 41 40 36 30 26 28 33 33 31 32 36 41 43 44 44 44 44 44 43 43 43 45 48 50 50 49 49 48 47 47 47 47 47 48 50
42 41 41 42 44 46 48 50 50 49 47 43 38 32 26 20 17 17 19 23 21 17 16 15 11 7 4 3 4 7 9 13 18 22 24 28 31 34 36 36 36 35 31 25 25 29 31 30 28 29 34 39 41 42 43 44 44 44 44 44 44 46 47 48 48 49 50 50 50 49 48 47 48 49
42 42 41 42 43 44 46 48 49 50 49 46 43 38 32 26 20 16 15 17 19 19 16 15 13 11 10 9 8 7 8 11 15 19 24 28 30 32 34 33 31 30 29 26 24 24 27 29 28 27 28 32 35 38 40 41 42 42 43 44 46 46 46 46 46 47 49 49 48 47 45 45 45 45
42 42 42 42 42 43 44 46 47 48 49 48 46 43 38 33 27 21 15 14 16 19 18 15 11 10 10 8 5 2 4 9 13 16 21 25 29 31 33 33 30 25 22 22 22 22 23 26 28 28 28 29 31 34 36 38 39 39 39 41 43 43 43 43 43 43 43 43 43 43 43 43 43 44
41 42 42 42 42 42 42 44 45 46 47 48 47 45 43 38 33 28 21 16 14 16 17 18 14 8 6 6 7 6 3 3 8 12 15 19 23 26 29 32 32 26 18 15 17 18 19 22 26 29 29 30 31 33 35 37 39 40 40 41 41 42 42 42 42 42 43 43 43 44 44 44 45 47
40 41 42 42 42 41 41 42 43 44 45 46 46 46 44 42 38 34 28 22 16 13 13 15 17 14 10 7 6 7 6 3 3 6 9 13 17 20 23 25 28 29 25 19 16 14 12 15 20 24 28 29 31 34 37 38 39 41 42 42 43 43 43 44 44 45 45 46 47 47 48 49 50 50
39 40 41 41 42 42 41 41 41 42 42 43 44 45 45 44 42 38 34 28 23 16 12 11 13 15 14 10 7 5 4 2 1 2 5 8 11 15 18 20 22 26 28 26 22 18 14 11 12 16 21 24 28 32 36 38 38 39 40 42 43 43 44 44 45 46 47 48 48 49 50 51 52 52
38 39 40 40 41 41 41 41 40 40 41 41 42 42 43 43 43 42 39 36 31 25 19 13 10 10 12 12 11 9 6 3 1 0 2 5 8 11 14 16 17 20 23 25 24 22 20 16 13 12 14 17 19 22 27 31 33 34 35 38 41 42 43 43 43 43 44 45 46 47 48 49 50 51
37 37 38 39 40 40 41 41 40 40 39 39 40 40 41 42 42 42 42 40 37 33 28 22 16 11 9 9 10 10 10 8 6 3 1 1 4 7 10 13 14 15 18 21 22 21 21 20 18 15 15 14 14 14 16 18 21 24 26 28 32 35 37 38 38 38 38 37 38 39 41 43 44 45
Wind_Direction
291 289 287 285 284 282 281 281 281 280 281 281 281 282 282 282 282 280 279 278 277 276 275 274 273 273 273 273 272 272 272 272 272 272 272 271 268 262 253 248 246 245 244 247 252 250 241 231 227 227 227 228 230 229 228 227 228 229 230 231 230 229 227 226 227 228 228 228 228 228 229 230 230 231
292 290 289 287 286 284 283 282 282 281 281 281 281 281 281 281 281 280 279 277 276 275 274 273 272 272 272 271 271 271 272 272 272 271 271 270 267 260 252 247 244 244 243 246 251 247 235 227 226 226 227 228 229 228 227 227 228 228 229 230 231 229 228 227 227 229 229 229 229 229 230 231 232 233
293 291 290 288 287 285 284 284 283 283 282 281 281 280 280 280 279 279 278 277 276 275 273 271 271 271 271 271 271 271 272 273 273 272 271 268 264 258 251 245 244 243 243 249 251 239 228 224 225 225 227 227 228 228 228 230 230 228 228 230 230 229 228 227 227 229 230 230 230 230 231 233 234 235
294 292 291 289 288 287 286 285 285 284 283 283 282 280 279 278 278 277 277 277 275 274 273 271 269 268 268 269 270 270 270 271 273 273 270 265 260 255 249 244 243 242 243 249 242 226 220 224 225 225 226 227 228 228 230 231 230 228 229 230 230 229 228 227 227 229 230 230 230 231 232 233 235 235
294 293 292 291 290 289 288 287 286 285 284 283 282 281 280 279 278 277 277 277 276 273 272 271 269 266 266 266 268 268 267 268 270 271 268 264 257 252 247 243 241 241 242 245 234 221 219 224 226 226 226 227 228 229 230 230 229 229 229 229 229 229 228 227 227 228 229 230 231 231 233 234 235 236
294 293 292 291 290 289 288 287 286 285 283 282 281 280 280 279 279 279 278 277 276 274 271 270 269 267 265 264 265 267 267 267 268 269 267 263 257 250 246 242 239 238 238 239 236 229 224 224 227 228 226 226 227 228 229 229 229 230 230 230 230 229 228 227 228 229 229 230 231 232 233 234 236 237
294 294 292 291 290 289 288 287 286 285 284 282 281 279 279 278 278 278 278 277 276 274 272 269 268 266 264 264 263 264 265 265 266 266 264 261 256 249 245 241 238 237 235 235 237 235 229 225 227 229 228 227 227 227 229 230 230 230 230 230 230 228 228 227 227 229 230 230 231 232 234 235 236 238
295 294 293 292 291 290 289 287 286 285 284 283 282 280 279 278 277 276 276 276 275 274 271 269 267 265 263 262 262 262 262 261 262 263 260 259 256 250 245 242 239 238 235 233 234 237 233 229 227 229 230 229 228 228 229 230 230 229 229 230 229 227 228 228 228 229 230 230 231 232 234 236 237 238
295 294 293 292 291 290 289 288 286 285 283 282 281 280 279 278 276 275 274 274 274 273 271 268 266 265 262 260 260 261 260 258 259 261 261 260 258 252 246 242 239 238 236 232 231 233 234 232 230 229 230 230 230 230 230 230 231 231 230 229 227 226 227 227 228 229 231 231 232 233 234 236 237 239
296 295 294 293 292 291 289 288 287 285 283 281 280 279 278 277 276 275 273 272 272 271 270 268 265 264 262 260 259 258 258 257 256 260 262 261 259 252 244 241 239 237 235 233 230 230 231 233 232 230 229 229 230 231 231 231 231 232 231 229 226 225 225 226 227 228 231 232 233 235 236 236 237 239
296 296 295 294 293 292 290 289 287 286 284 282 280 278 276 275 274 273 272 271 270 269 268 267 265 263 261 260 258 257 257 256 255 258 260 260 260 253 243 240 237 234 233 233 231 229 229 232 234 232 230 229 231 235 235 234 233 232 231 229 225 223 225 226 227 228 230 232 234 235 236 237 238 239
297 296 295 294 293 293 291 290 289 287 285 283 281 279 277 275 272 271 270 269 268 267 266 265 264 262 260 258 257 255 256 255 254 258 259 258 259 254 242 238 235 230 229 230 232 231 229 232 235 235 232 230 233 237 238 237 236 232 230 228 223 222 225 226 227 229 230 232 234 235 237 237 238 239
298 297 297 296 295 294 292 291 290 289 287 285 283 280 278 276 273 271 268 267 266 265 263 262 261 260 259 257 255 253 255 254 253 256 257 256 256 251 240 236 235 231 229 230 232 231 229 229 232 235 236 234 234 236 238 238 237 233 230 226 222 221 223 225 226 229 231 233 234 235 237 238 239 239
300 300 299 298 296 295 293 292 291 290 288 287 285 283 280 277 275 272 269 266 265 263 262 260 259 258 257 256 254 251 252 254 253 253 254 253 252 249 241 234 232 231 231 231 232 230 227 227 229 231 234 234 233 234 236 237 236 233 230 226 221 220 222 224 226 228 231 233 235 236 237 238 239 240
302 301 300 299 298 296 295 293 291 290 289 287 286 284 282 280 277 274 271 267 264 262 260 259 257 255 255 254 253 250 249 251 251 250 251 251 250 249 247 241 232 225 226 230 231 230 228 228 229 230 232 232 232 233 234 235 233 230 227 224 220 220 222 224 226 228 231 233 235 236 237 238 240 240
304 303 302 301 300 298 297 295 293 291 290 288 286 284 282 280 278 275 273 269 266 262 259 257 255 254 253 252 251 249 247 247 249 248 248 249 250 248 248 249 240 224 219 225 229 229 229 228 229 233 233 231 230 230 231 232 229 225 223 221 219 220 222 225 226 228 230 233 235 236 237 239 240 241
307 306 305 304 303 301 300 298 297 295 292 290 288 286 283 280 278 275 273 270 267 264 260 256 253 252 251 250 249 248 246 245 246 246 246 247 250 248 245 249 247 229 218 222 226 226 227 229 229 234 237 235 233 230 229 228 225 221 219 219 220 220 222 224 226 227 230 232 235 236 237 239 241 242
311 309 309 307 306 305 304 303 301 299 296 293 291 288 285 282 278 275 272 269 266 264 261 257 253 250 248 247 247 246 245 243 243 243 243 244 248 249 244 246 251 236 218 217 224 224 225 229 230 233 237 239 237 233 227 223 221 219 219 219 220 221 222 224 226 227 230 232 235 237 238 239 241 242
314 313 312 311 311 310 308 307 305 303 300 297 294 291 287 284 280 275 271 268 265 262 260 257 254 249 246 245 244 244 243 242 240 240 240 241 243 246 244 243 249 242 221 214 219 223 224 228 231 234 237 238 238 232 223 218 217 218 218 220 221 222 223 224 226 228 230 233 236 238 239 239 240 242
317 317 316 315 315 314 313 311 310 308 305 301 298 294 290 285 280 276 271 266 263 260 257 255 253 249 245 242 240 240 241 241 239 238 238 238 239 242 242 240 243 243 228 216 216 221 224 227 230 234 236 236 234 228 219 216 217 217 218 220 221 223 225 226 227 229 231 234 237 239 240 240 240 241
321 320 320 320 319 318 318 316 315 312 309 305 301 297 293 288 283 278 273 267 262 258 254 252 250 248 244 241 238 237 238 239 238 237 236 236 236 237 238 237 239 241 234 221 215 218 223 226 230 234 235 233 229 222 217 217 218 219 220 221 222 224 226 228 229 231 233 235 237 239 240 240 240 241
325 324 324 324 324 323 323 322 319 316 312 308 305 301 297 292 287 281 276 269 264 259 254 250 247 245 243 239 236 234 234 235 236 235 234 234 234 235 235 235 236 238 235 225 218 218 220 224 228 233 235 232 226 219 217 219 220 219 221 223 224 227 228 230 232 233 235 237 238 240 240 240 241 242
328 328 329 328 328 329 328 326 323 320 316 312 308 306 303 299 294 288 282 274 266 261 257 251 246 243 240 237 235 232 231 232 233 233 232 232 232 233 233 233 234 235 235 229 222 219 220 222 225 230 233 231 226 220 219 222 223 223 224 225 227 229 231 233 235 236 237 238 239 241 241 241 242 243
331 332 332 332 333 334 332 330 328 325 321 315 312 311 310 307 302 297 290 282 272 264 260 255 248 242 238 235 233 230 228 229 230 231 231 230 231 231 231 232 232 232 234 232 225 220 220 221 223 226 230 230 228 227 226 227 228 230 230 230 230 231 233 235 237 238 239 239 240 241 242 242 242 244
335 336 336 336 337 337 336 335 333 331 326 321 319 318 317 316 314 309 301 291 280 270 263 258 252 245 238 233 230 228 227 226 227 229 228 228 229 230 230 231 230 229 232 233 226 220 219 220 221 223 226 228 229 229 229 229 230 232 234 234 234 235 236 237 240 243 242 242 242 242 242 242 243 244
339 339 339 340 341 341 340 339 339 337 333 331 330 328 325 323 323 320 311 300 292 286 276 265 257 249 240 233 227 225 224 224 224 225 226 226 227 229 229 230 228 228 230 232 228 223 220 219 219 220 222 225 228 229 229 229 229 232 234 234 234 237 239 240 242 245 246 247 247 246 244 243 243 244
342 342 343 344 345 345 345 344 343 342 341 341 341 339 333 328 329 327 320 314 322 328 308 282 267 256 244 234 226 222 221 222 222 223 223 223 225 227 228 229 228 228 230 232 231 228 224 221 218 217 218 220 225 228 230 229 229 231 234 233 232 233 237 239 241 244 246 249 250 249 247 246 245 246
345 345 346 348 349 349 348 348 347 347 346 347 350 349 343 337 337 335 330 319 323 337 329 297 277 266 249 236 227 221 219 219 220 221 221 221 222 225 227 228 228 229 231 232 232 231 228 223 219 216 215 216 220 225 229 231 231 232 235 236 234 233 234 237 239 243 245 247 248 249 248 247 247 248
348 349 350 353 353 352 352 352 351 350 349 349 354 356 351 344 344 345 344 336 323 322 321 302 287 280 256 239 229 221 218 217 218 219 219 219 221 223 225 226 228 229 231 232 234 233 228 223 220 217 215 213 216 222 227 230 232 233 234 236 237 236 237 237 238 241 244 246 248 250 249 247 246 247
351 353 354 356 357 355 355 354 353 354 353 349 351 356 354 346 348 352 352 351 347 333 317 303 291 282 261 241 231 224 219 217 217 218 218 218 220 222 223 225 227 229 229 231 234 234 228 222 219 217 215 213 215 219 225 228 232 234 234 236 237 238 239 240 240 242 245 247 249 251 248 245 245 246
353 355 358 360 360 359 358 357 356 356 356 349 347 355 358 349 347 355 351 347 357 358 338 320 290 248 236 231 230 225 221 218 217 218 218 218 219 221 222 224 227 227 227 230 234 234 227 222 218 216 214 213 215 219 223 226 228 230 232 234 236 238 240 241 242 243 245 247 249 250 247 244 246 248
356 358 0 2 3 2 1 0 359 357 357 353 345 352 1 357 349 349 344 334 340 348 342 338 346 216 223 221 221 221 220 219 219 219 219 218 219 219 219 221 224 227 230 234 236 232 224 219 217 217 216 214 214 217 220 222 223 225 227 229 233 236 238 239 240 241 243 246 247 247 246 245 248 250
359 0 2 4 5 5 4 4 3 0 359 359 346 343 360 6 357 348 342 336 336 339 343 350 126 151 176 204 203 204 212 218 220 219 219 218 218 217 217 218 222 227 233 238 239 233 222 215 214 217 218 219 218 218 218 218 219 221 223 226 230 234 236 237 237 238 241 243 245 246 246 246 248 251
360 1 4 5 6 8 7 7 7 5 3 3 353 340 352 9 9 359 350 346 348 352 358 13 102 166 175 191 192 192 198 208 213 217 218 217 216 216 215 216 220 226 233 237 236 232 224 217 215 218 220 221 220 220 220 221 223 225 227 228 230 232 234 237 238 237 237 239 241 242 243 245 248 251
1 2 4 6 8 10 10 10 10 10 7 7 2 348 346 2 15 13 6 3 9 5 356 5 42 91 133 215 206 202 204 209 214 216 216 215 215 215 215 216 220 226 234 236 233 230 227 221 219 220 221 220 219 220 221 223 226 228 230 231 233 233 234 234 233 233 234 236 240 242 245 249 253 254
3 3 5 7 9 11 12 13 13 13 12 11 10 2 350 352 7 17 17 15 15 18 18 24 50 106 92 133 188 197 205 213 218 218 216 216 216 215 217 221 224 229 238 240 234 231 229 224 220 219 219 219 219 221 223 225 226 227 228 230 232 233 232 229 229 231 236 240 243 247 250 252 254 254
5 4 5 8 10 12 14 15 16 16 16 15 14 11 4 354 352 5 16 15 7 6 23 43 70 165 253 313 202 204 208 210 211 212 213 216 217 218 222 226 229 231 238 241 236 231 229 225 221 220 219 219 219 221 224 226 227 228 228 228 229 229 229 228 230 234 239 242 244 247 249 250 251 253
7 6 6 8 10 12 14 16 17 18 19 19 18 16 14 9 356 351 4 15 14 5 1 14 41 75 93 101 158 190 204 208 210 210 210 213 217 219 223 227 230 232 236 238 234 229 226 224 222 222 221 221 220 221 222 223 224 226 229 229 229 227 227 229 232 236 239 241 244 246 248 250 252 253
8 8 7 8 10 12 14 16 18 19 21 21 21 20 19 19 15 0 349 3 21 25 11 0 13 36 58 85 113 146 186 201 209 213 214 215 218 219 221 224 228 233 239 241 237 231 227 225 224 224 223 223 223 221 221 221 220 222 225 228 230 229 229 230 233 235 238 239 241 243 245 248 250 249
9 9 9 10 10 12 14 16 18 20 21 22 23 23 22 21 22 20 5 353 8 24 28 22 9 1 8 33 66 136 206 206 208 214 219 222 224 224 225 226 227 232 241 245 242 238 234 229 226 224 223 224 224 223 222 222 221 222 223 225 228 229 229 230 231 233 236 237 239 240 242 243 244 243
9 10 10 11 11 12 13 15 18 19 21 22 23 25 25 23 22 23 21 11 3 9 20 29 32 23 15 37 68 85 99 185 207 213 219 225 229 230 231 232 231 232 235 238 235 235 235 231 227 225 224 224 224 224 225 226 226 226 226 225 226 227 228 230 232 235 237 238 238 238 239 240 240 241
9 10 10 11 13 13 13 14 16 18 20 22 24 25 27 27 26 25 25 23 16 6 5 18 32 42 45 51 73 87 89 100 175 201 213 223 229 232 235 237 236 234 234 236 236 236 238 235 229 227 226 226 225 224 225 227 228 229 229 228 227 228 230 232 235 238 239 239 237 236 236 236 237 239
8 9 10 11 12 14 14 14 15 16 18 21 23 25 27 28 29 29 28 28 28 23 12 5 16 30 38 40 43 56 68 78 151 203 215 222 228 232 236 240 241 239 238 242 247 252 256 255 242 232 229 228 227 227 227 228 229 229 229 228 227 227 229 233 236 240 242 243 242 241 240 239 239 240
8 9 10 10 11 13 15 15 14 15 16 18 21 23 26 28 29 30 30 31 31 30 28 20 9 11 23 32 39 45 50 53 52 241 229 230 233 236 238 242 245 244 243 247 252 258 263 267 266 254 239 232 229 229 229 230 230 231 230 229 228 228 228 230 233 237 241 244 247 248 249 249 249 249
7 8 9 9 10 12 14 15 15 15 15 16 17 20 23 26 28 29 31 32 32 32 31 31 28 18 9 11 22 35 47 56 63 65 64 238 242 244 245 247 249 249 248 250 254 259 262 265 268 266 258 249 243 238 235 233 232 231 231 231 232 232 233 234 234 236 237 240 243 245 247 249 250 251